Weather History for Laconia, NH

Change the Weather History Date:

Saturday, March 16, 2013

  Actual Average Record
Temperature  
Mean Temperature 26 °F -  
Max Temperature 32 °F 45 °F 63 °F (1990)
Min Temperature 21 °F 22 °F -1 °F (1993)
Degree Days  
Heating Degree Days 38    
Moisture  
Dew Point 10 °F    
Average Humidity 51    
Maximum Humidity 74    
Minimum Humidity 35    
Precipitation  
Precipitation 0.00 in - - ()
Sea Level Pressure  
Sea Level Pressure 29.77 in    
Wind  
Wind Speed 7 mph (West)    
Max Wind Speed 12 mph    
Max Gust Speed 18 mph    
Visibility 10 miles    
Events      
Averages and records for this station are not official NWS values.
T = Trace of Precipitation, MM = Missing Value Source: NWS Daily Summary

Daily Weather History Graph

Daily Weather History Graph

Search for Another Location

Airport:

Trip Planner

Search our weather history database for the weather conditions in past years. The results will help you decide how hot, cold, wet, or windy it might be!

Date:

Astronomy

Mar. 16, 2013 Rise Set
Actual Time 6:55 AM EDT 6:53 PM EDT
Civil Twilight 6:27 AM EDT 7:22 PM EDT
Nautical Twilight 5:53 AM EDT 7:55 PM EDT
Astronomical Twilight 5:19 AM EDT 8:29 PM EDT
Moon 9:14 AM EDT (3/16) No Moon Set
Length of Visible Light 12h 54m
Length of Day
11h 57m
Waxing Crescent, 23% of the Moon is Illuminated
Mar 16
Waxing Crescent
Mar 19
First Quarter
Mar 27
Full
Apr 3
Last Quarter
Apr 10
New

Hourly Weather History & Observations

Time (EDT) Temp. Windchill Dew Point Humidity Pressure Visibility Wind Dir Wind Speed Gust Speed Precip Events Conditions
12:15 AM 28.4 °F 21.2 °F 17.6 °F 64% 29.65 in 10.0 mi West 6.9 mph - N/A   Partly Cloudy
12:35 AM 26.6 °F 19.1 °F 17.6 °F 69% 29.66 in 10.0 mi West 6.9 mph - N/A   Partly Cloudy
12:55 AM 26.6 °F 20.0 °F 17.6 °F 69% 29.66 in 10.0 mi WSW 5.8 mph - N/A   Clear
1:55 AM 26.6 °F 19.1 °F 17.6 °F 69% 29.68 in 10.0 mi West 6.9 mph - N/A   Partly Cloudy
2:15 AM 26.6 °F 18.2 °F 17.6 °F 69% 29.68 in 10.0 mi West 8.1 mph 16.1 mph N/A   Clear
2:35 AM 26.6 °F 16.8 °F 15.8 °F 64% 29.68 in 10.0 mi West 10.4 mph 18.4 mph N/A   Clear
2:55 AM 26.6 °F 17.5 °F 15.8 °F 64% 29.68 in 10.0 mi West 9.2 mph - N/A   Clear
3:15 AM 26.6 °F 19.1 °F 15.8 °F 64% 29.69 in 10.0 mi West 6.9 mph - N/A   Clear
3:55 AM 24.8 °F 16.9 °F 15.8 °F 69% 29.69 in 10.0 mi West 6.9 mph - N/A   Clear
4:15 AM 24.8 °F 16.1 °F 15.8 °F 69% 29.70 in 10.0 mi West 8.1 mph - N/A   Clear
4:35 AM 24.8 °F 17.9 °F 14.0 °F 64% 29.71 in 10.0 mi West 5.8 mph - N/A   Clear
4:55 AM 24.8 °F 19.1 °F 14.0 °F 64% 29.72 in 10.0 mi West 4.6 mph - N/A   Clear
5:15 AM 24.8 °F 20.5 °F 14.0 °F 64% 29.73 in 10.0 mi West 3.5 mph - N/A   Clear
5:35 AM 23.0 °F 17.0 °F 12.2 °F 63% 29.74 in 10.0 mi WSW 4.6 mph - N/A   Clear
6:15 AM 21.2 °F 11.7 °F 14.0 °F 74% 29.75 in 10.0 mi WSW 8.1 mph - N/A   Clear
6:35 AM 21.2 °F 13.6 °F 12.2 °F 68% 29.76 in 10.0 mi WSW 5.8 mph - N/A   Clear
6:55 AM 21.2 °F 16.4 °F 12.2 °F 68% 29.77 in 10.0 mi West 3.5 mph - N/A   Partly Cloudy
7:15 AM 21.2 °F 11.7 °F 12.2 °F 68% 29.77 in 10.0 mi West 8.1 mph - N/A   Partly Cloudy
7:35 AM 21.2 °F 13.6 °F 12.2 °F 68% 29.78 in 10.0 mi SW 5.8 mph - N/A   Clear
7:55 AM 23.0 °F 15.8 °F 12.2 °F 63% 29.78 in 10.0 mi West 5.8 mph - N/A   Clear
8:15 AM 23.0 °F 13.9 °F 12.2 °F 63% 29.79 in 10.0 mi West 8.1 mph - N/A   Clear
8:55 AM 24.8 °F 16.9 °F 12.2 °F 59% 29.80 in 10.0 mi West 6.9 mph - N/A   Clear
9:15 AM 24.8 °F 17.9 °F 12.2 °F 59% 29.80 in 10.0 mi West 5.8 mph - N/A   Clear
9:35 AM 26.6 °F 18.2 °F 12.2 °F 55% 29.81 in 10.0 mi WNW 8.1 mph - N/A   Clear
9:55 AM 26.6 °F 16.2 °F 10.4 °F 51% 29.81 in 10.0 mi WSW 11.5 mph - N/A   Clear
10:15 AM 26.6 °F 16.8 °F 12.2 °F 55% 29.80 in 10.0 mi West 10.4 mph - N/A   Partly Cloudy
10:35 AM 26.6 °F 18.2 °F 10.4 °F 51% 29.80 in 10.0 mi West 8.1 mph - N/A   Scattered Clouds
11:15 AM 26.6 °F 16.2 °F 10.4 °F 51% 29.80 in 10.0 mi West 11.5 mph - N/A   Mostly Cloudy
11:35 AM 26.6 °F 16.8 °F 10.4 °F 51% 29.79 in 10.0 mi NW 10.4 mph 16.1 mph N/A   Scattered Clouds
11:55 AM 26.6 °F 16.8 °F 8.6 °F 47% 29.80 in 10.0 mi West 10.4 mph 16.1 mph N/A   Partly Cloudy
12:15 PM 26.6 °F 16.8 °F 10.4 °F 51% 29.80 in 10.0 mi West 10.4 mph - N/A   Partly Cloudy
12:35 PM 28.4 °F 19.7 °F 8.6 °F 43% 29.80 in 10.0 mi WNW 9.2 mph 17.3 mph N/A   Clear
12:55 PM 28.4 °F 18.5 °F 8.6 °F 43% 29.80 in 10.0 mi SW 11.5 mph 17.3 mph N/A   Clear
1:15 PM 28.4 °F 22.2 °F 8.6 °F 43% 29.79 in 10.0 mi West 5.8 mph - N/A   Partly Cloudy
1:35 PM 28.4 °F 19.7 °F 8.6 °F 43% 29.79 in 10.0 mi West 9.2 mph - N/A   Scattered Clouds
1:55 PM 30.2 °F 21.3 °F 8.6 °F 40% 29.78 in 10.0 mi WSW 10.4 mph - N/A   Scattered Clouds
2:15 PM 28.4 °F 21.2 °F 8.6 °F 43% 29.78 in 10.0 mi West 6.9 mph 18.4 mph N/A   Mostly Cloudy
2:35 PM 30.2 °F 23.4 °F 8.6 °F 40% 29.77 in 10.0 mi WNW 6.9 mph - N/A   Mostly Cloudy
2:55 PM 28.4 °F 19.1 °F 6.8 °F 40% 29.78 in 10.0 mi West 10.4 mph - N/A   Clear
3:15 PM 30.2 °F 22.6 °F 8.6 °F 40% 29.78 in 10.0 mi West 8.1 mph - N/A   Clear
3:35 PM 30.2 °F 21.3 °F 8.6 °F 40% 29.78 in 10.0 mi WSW 10.4 mph 16.1 mph N/A   Partly Cloudy
4:15 PM 30.2 °F 22.6 °F 6.8 °F 37% 29.77 in 10.0 mi West 8.1 mph - N/A   Scattered Clouds
4:35 PM 30.2 °F 21.3 °F 8.6 °F 40% 29.76 in 10.0 mi West 10.4 mph - N/A   Scattered Clouds
4:55 PM 30.2 °F 21.9 °F 6.8 °F 37% 29.76 in 10.0 mi West 9.2 mph - N/A   Clear
5:15 PM 32.0 °F 25.6 °F 6.8 °F 35% 29.76 in 10.0 mi WSW 6.9 mph - N/A   Clear
5:35 PM 32.0 °F 27.5 °F 6.8 °F 35% 29.76 in 10.0 mi WNW 4.6 mph - N/A   Clear
5:55 PM 30.2 °F 26.7 °F 6.8 °F 37% 29.76 in 10.0 mi WNW 3.5 mph - N/A   Clear
6:35 PM 30.2 °F 23.4 °F 6.8 °F 37% 29.77 in 10.0 mi NW 6.9 mph - N/A   Clear
6:55 PM 30.2 °F 26.7 °F 6.8 °F 37% 29.78 in 10.0 mi NW 3.5 mph - N/A   Clear
7:15 PM 30.2 °F 26.7 °F 6.8 °F 37% 29.78 in 10.0 mi NW 3.5 mph - N/A   Clear
7:35 PM 30.2 °F 25.4 °F 6.8 °F 37% 29.78 in 10.0 mi WNW 4.6 mph - N/A   Clear
7:55 PM 28.4 °F 23.3 °F 6.8 °F 40% 29.79 in 10.0 mi WNW 4.6 mph - N/A   Clear
8:15 PM 28.4 °F 22.2 °F 6.8 °F 40% 29.80 in 10.0 mi NW 5.8 mph - N/A   Partly Cloudy
8:35 PM 28.4 °F 20.4 °F 6.8 °F 40% 29.80 in 10.0 mi NNW 8.1 mph - N/A   Mostly Cloudy
8:55 PM 28.4 °F 21.2 °F 6.8 °F 40% 29.81 in 10.0 mi NNW 6.9 mph - N/A   Overcast
9:15 PM 28.4 °F - 6.8 °F 40% 29.82 in 10.0 mi Calm Calm - N/A   Overcast
9:35 PM 28.4 °F - 6.8 °F 40% 29.82 in 10.0 mi Calm Calm - N/A   Overcast
9:55 PM 28.4 °F - 6.8 °F 40% 29.83 in 10.0 mi Calm Calm - N/A   Overcast
10:15 PM 28.4 °F - 6.8 °F 40% 29.83 in 10.0 mi Calm Calm - N/A   Overcast
10:35 PM 28.4 °F - 5.0 °F 37% 29.84 in 10.0 mi Calm Calm - N/A   Overcast
10:55 PM 26.6 °F - 5.0 °F 40% 29.84 in 10.0 mi Calm Calm - N/A   Partly Cloudy
11:15 PM 24.8 °F - 6.8 °F 46% 29.85 in 10.0 mi Calm Calm - N/A   Clear
11:35 PM 24.8 °F - 6.8 °F 46% 29.86 in 10.0 mi Calm Calm - N/A   Clear
11:56 PM 23.0 °F - 8.6 °F 54% 29.86 in 10.0 mi Calm Calm - N/A   Clear